Location: Walland Marsh
(50.9500°N, 0.8333°E)
Time: 14:05:52
(UTC+00:00)

Daily predictions for brighter satellites

Satellite Brightness Start Highest point End
(mag) Time Altitude Azimuth Time Altitude Azimuth Time Altitude Azimuth
SPOT 3 Rocket 4.0 20:39:31 10° SE 20:44:32 51° ENE 20:49:36 10° N
NOSS 2-2 (E) 3.4 20:47:33 10° SSW 20:50:32 34° SE 20:53:25 10° ENE
NOSS 2-2 (C) 2.8 20:47:44 10° SSW 20:50:51 52° SE 20:53:55 10° NE
Nadezhda 3 Rocket 4.0 20:46:26 10° N 20:52:38 81° E 20:58:47 10° SSE
In-Cosmos 22 Rocket 4.4 20:47:42 10° S 20:53:16 55° E 20:58:44 10° NNE
Landsat 4 4.5 20:50:19 10° SE 20:53:25 33° ENE 20:56:32 10° N
BREEZE-M DEB (TANK) 3.4 20:51:11 10° W 20:53:50 53° SSW 21:00:28 10° ESE
Cosmos 1544 Rocket 4.4 20:49:54 10° N 20:53:53 34° ENE 20:57:51 10° SE
NOSS 2-3 (E) 3.6 20:53:16 10° SSW 20:56:44 41° SE 21:00:35 10° NE
Cosmos 1844 3.9 20:51:44 10° SSW 20:57:33 86° WNW 21:03:21 10° NNE
Terra 1.8 20:53:39 10° SSE 20:58:22 84° ENE 21:03:08 10° NNW
Meteor 1-21 Rocket 4.2 20:59:10 10° S 21:04:43 90° WNW 21:10:17 10° NNE
USA 305 3.4 21:01:10 10° W 21:04:56 50° N 21:08:20 10° ENE
GP-B 4.1 21:02:20 10° N 21:06:35 47° W 21:10:48 10° SSW
ATLAS CENTAUR R/B 1.7 21:02:56 10° NW 21:06:51 57° SW 21:10:51 10° SSE
Cosmos 1437 Rocket 4.0 21:07:19 11° SE 21:10:00 22° E 21:12:51 10° NE
Cosmos 1833 Rocket 2.9 21:07:25 10° NNW 21:13:04 64° ENE 21:18:22 11° SE
Meteor 2-1 Rocket 4.2 21:07:24 10° NNW 21:13:06 86° ENE 21:18:38 10° SSE
NOSS 2-3 (C) 3.2 21:10:51 10° SSW 21:14:25 59° SE 21:18:29 10° NE
Cosmos 1455 Rocket 3.5 21:10:06 10° NNW 21:14:28 62° W 21:18:45 10° S
Cosmos 1975 Rocket 3.1 21:14:41 10° S 21:19:08 84° E 21:23:38 10° NNE
Orbus 7S? 4.2 21:16:56 10° WNW 21:19:16 24° SW 21:21:20 12° S
Cosmos 1025 Rocket 3.9 21:15:30 10° SSW 21:19:38 50° WNW 21:23:47 10° N
Cosmos 44 4.1 21:15:13 10° S 21:19:53 33° ESE 21:24:24 10° NE
Lacrosse 5 2.1 21:16:39 10° WSW 21:21:43 77° NNW 21:26:48 10° ENE
ERS-1 Rocket 3.6 21:19:17 10° S 21:24:10 52° W 21:29:04 10° NNW
Cosmos 220 Rocket 3.9 21:20:24 10° NNW 21:24:34 83° ENE 21:28:09 14° SSE
Spot 2 Rocket 3.8 21:20:03 10° S 21:25:08 68° WSW 21:30:15 10° NNW
Cosmos 2082 Rocket 3.5 21:21:04 10° NNW 21:26:03 31° NE 21:31:00 10° ESE
USA 307 3.3 21:24:19 10° W 21:28:11 56° N 21:31:53 10° ENE
NOSS 2-2 (D) 2.6 21:25:05 10° SW 21:28:17 81° SE 21:31:27 10° NE
ATLAS 5 CENTAUR R/B 2.7 21:25:09 10° WSW 21:28:22 39° NW 21:32:02 10° NE
Cosmos 2218 Rocket 4.4 21:23:42 11° SSE 21:29:16 44° E 21:35:06 10° NNE
Landsat 5 4.1 21:26:23 10° NNE 21:30:33 41° E 21:34:10 13° SSE
Cosmos 1844 Rocket 3.9 21:28:22 10° SW 21:33:42 46° NW 21:39:05 10° NNE
Cosmos 2278 Rocket 3.3 21:31:13 13° SSE 21:34:52 25° ESE 21:39:21 10° NE
Cosmos 1606 2.8 21:31:19 10° NNW 21:34:52 66° W 21:38:05 12° S
MetOp-A 3.8 21:35:01 15° SSE 21:38:52 67° ENE 21:43:09 10° N
Cosmos 2298 Rocket 4.3 21:34:00 10° S 21:39:06 48° ESE 21:44:12 10° NNE
ULPM Upper Stage 4.3 21:35:37 10° NW 21:39:36 33° NNE 21:43:33 10° E
Cosmos 2341 Rocket 4.1 21:33:58 10° S 21:40:11 66° E 21:46:29 10° NNE
Cosmos 614 Rocket 4.1 21:35:29 10° NNW 21:40:35 67° ENE 21:44:35 16° SE
Meteor 1-11 4.4 21:37:37 10° SSW 21:43:21 81° WNW 21:49:04 10° N
Cosmos 1869 3.8 21:42:57 10° NNW 21:46:41 53° W 21:50:08 12° S
H-2A R/B 4.4 21:44:51 10° E 21:47:21 17° ENE 21:49:51 10° NNE
CZ-4C R/B 3.9 21:43:23 10° NW 21:49:23 40° NNE 21:56:48 10° E
Cosmos 1536 Rocket 3.8 21:47:10 16° SSE 21:50:22 50° E 21:54:33 10° NNE
Ariane Rocket 3.9 21:47:46 10° S 21:52:37 44° W 21:57:28 10° NNW
ISS -3.7 21:49:38 10° W 21:52:59 76° N 21:56:18 10° E
COSMOS 2406 4.2 21:50:29 10° NNW 21:55:48 38° NE 22:00:48 11° ESE
USA 290 3.9 21:58:14 17° ESE 21:58:33 17° ESE 22:00:44 10° ENE
GENESIS II 4.4 21:58:05 10° NW 22:01:34 51° SW 22:03:31 23° SSE
ARIANE 5 R/B 3.2 21:58:54 18° SE 22:01:53 47° ENE 22:06:11 10° N
Cosmos 1269 Rocket 4.5 21:58:00 10° NNW 22:03:14 54° ENE 22:07:06 18° SE
BREEZE-M DEB (TANK) 3.9 21:52:38 10° WNW 22:03:37 40° SW 22:06:11 20° SSE
Cosmos 1727 Rocket 4.3 21:57:53 10° N 22:04:09 59° ENE 22:08:48 19° SSE
Cosmos 2228 3.2 22:00:48 10° NNW 22:04:58 63° W 22:08:06 17° S
ATLAS 3B R/B 3.9 22:01:26 17° SSE 22:05:10 26° ESE 22:11:05 10° ENE
Geosat 4.1 22:04:39 10° NNE 22:09:42 81° WNW 22:14:43 10° SW
Cosmos 1943 Rocket 3.1 22:08:20 19° SSE 22:11:12 30° ESE 22:16:00 10° NE
USA 276 3.7 22:10:45 10° WSW 22:12:56 18° SSW 22:13:09 18° SSW
Cosmos 1821 Rocket 4.2 22:09:49 18° SSE 22:14:30 58° E 22:20:44 10° NNE
USA 281 4.4 22:10:35 10° ESE 22:16:22 35° NE 22:22:11 10° NNW
Cosmos 1125 Rocket 4.3 22:11:41 10° SW 22:16:53 55° WNW 22:22:07 10° NNE
NOSS 2-3 (D) 4.3 22:14:12 10° WSW 22:17:50 49° NW 22:22:05 10° NE
Gbstr 26 Del rocket 3.5 22:14:02 10° W 22:18:46 81° N 22:24:39 10° E
Cosmos 2058 4.4 22:19:03 18° ESE 22:20:34 22° E 22:23:46 10° NE
Cosmos 2150 Rocket 4.1 22:15:18 10° SSW 22:20:43 84° WNW 22:26:14 10° NNE
ALOS 2 3.9 22:19:19 16° ESE 22:22:05 29° ENE 22:25:53 10° N
Cosmos 2084 Rocket 3.3 22:21:00 10° NW 22:25:00 73° NE 22:27:21 23° SE
NOSS 3-1 (C) 3.1 22:24:27 10° SSW 22:29:15 60° SE 22:35:08 10° NE
Cosmos 1544 4.4 22:30:25 13° ENE 22:30:25 13° ENE 22:31:05 10° NE
SeaSat 1 2.9 22:26:56 18° SE 22:30:29 55° NE 22:35:18 10° NNW
Cosmos 1812 2.8 22:31:32 10° N 22:35:03 56° ENE 22:36:28 31° SE
Terra 4.2 22:34:03 10° WSW 22:36:36 14° W 22:39:10 10° NW
Cosmos 2366 rocket 4.3 22:30:37 10° SSW 22:36:42 64° WNW 22:42:50 10° N
USA 305 3.1 22:33:57 10° WNW 22:37:32 51° N 22:40:35 10° E
Cosmos 1238 Rocket 4.0 22:37:37 10° NNE 22:40:33 27° ENE 22:42:01 20° ESE
Aureole 2 4.2 22:41:12 38° S 22:42:12 66° ESE 22:45:35 10° NNE
BREEZE-M R/B 3.8 22:37:53 10° WSW 22:42:13 65° SSE 22:56:26 10° E
PSLV R/B 4.0 22:39:11 10° NNE 22:43:08 56° ESE 22:44:51 30° SSE
Cosmos 1437 Rocket 4.2 22:42:13 10° SW 22:45:28 31° WNW 22:48:46 10° N
Cosmos 1892 Rocket 3.8 22:45:05 28° SSE 22:47:13 58° E 22:51:36 10° NNE
Cosmos 1140 Rocket 3.7 22:46:37 10° NNW 22:51:43 61° ENE 22:54:48 23° SE
Cosmos 1833 Rocket 4.2 22:51:59 10° NW 22:56:34 26° WSW 23:00:03 15° SSW
MINOTAUR 4 R/B 3.6 22:53:57 10° NNE 22:56:45 52° ESE 22:57:02 49° SE
Cosmos 2239 Rocket 4.5 22:55:30 23° S 22:59:36 83° E 23:05:54 10° N
Cosmos 44 4.1 22:55:46 10° WSW 23:00:54 55° NW 23:05:49 10° NE
BREEZE-M DEB (TANK) 3.5 22:58:21 10° W 23:01:11 62° S 23:08:23 10° ESE
SL-08 R/B 4.4 22:57:34 23° S 23:01:35 84° E 23:07:45 10° N
USA 307 3.0 22:57:57 10° WNW 23:01:46 59° NNE 23:05:15 10° E
Cosmos-2242 3.9 22:59:59 10° N 23:03:55 36° ENE 23:05:51 23° ESE
Cosmos 2123 Rocket 4.0 22:57:43 10° N 23:04:02 77° E 23:07:51 26° SSE
Cosmos 1606 Rocket 4.3 23:00:41 10° NNW 23:04:48 43° W 23:07:01 23° SSW
CENTAUR R/B 4.3 22:57:42 10° NW 23:04:50 42° NNE 23:13:11 10° E
Lacrosse 5 3.2 23:00:23 10° WNW 23:05:13 43° N 23:10:04 10° ENE
NOSS 3-1 (A) 3.2 23:03:57 25° S 23:06:42 54° SE 23:12:31 10° NE
Cosmos 1726 Rocket 3.9 23:02:48 10° NNW 23:07:02 54° W 23:09:05 28° SSW
NOSS 8 (F) 4.2 23:05:04 10° NW 23:08:06 75° SW 23:09:06 43° SSE
Cosmos 2082 Rocket 2.3 23:04:58 10° NW 23:10:32 62° WSW 23:13:28 28° S
Cosmos 1515 4.3 23:10:35 10° N 23:13:53 38° ENE 23:14:57 30° ESE
Cosmos 2278 Rocket 2.5 23:12:59 11° SW 23:18:27 67° WNW 23:24:08 10° NNE
ULPM Upper Stage 2.8 23:14:58 10° NW 23:19:19 65° SW 23:20:59 35° SSE
PSLV R/B 4.3 23:16:44 10° NNE 23:20:49 40° E 23:22:20 30° SE
Cosmos 2369 Rocket 3.6 23:19:37 19° SE 23:21:26 22° ESE 23:25:37 10° NE
H-2A R/B 2.5 23:20:31 35° SSW 23:21:54 58° WSW 23:25:42 10° NNW
ISS -3.9 23:26:27 10° WNW 23:29:45 63° SSW 23:30:10 55° SSE
USA 290 3.6 23:30:56 19° WSW 23:32:41 35° WNW 23:35:41 10° N
Cosmos 2058 Rocket 3.4 23:28:36 10° NNW 23:32:51 55° W 23:34:37 32° SSW
Cosmos 1782 2.7 23:29:34 10° N 23:33:23 74° E 23:34:35 41° SSE
USA 229 DEB 4.3 23:32:18 26° SSE 23:34:39 35° ESE 23:40:35 10° NE
USA 229 4.3 23:32:27 26° SSE 23:34:47 34° ESE 23:40:42 10° NE
CRYOSAT 2 4.3 23:30:47 10° N 23:35:42 81° E 23:37:58 33° S
Cosmos 1862 4.3 23:35:38 27° ESE 23:36:38 31° E 23:40:03 10° NNE
Cosmos 1378 3.0 23:34:16 10° N 23:37:28 56° ENE 23:38:06 45° SE
Cosmos 482 Debris 4.0 23:33:47 10° WSW 23:38:23 85° SSE 23:41:44 10° ENE
ARIANE 5 R/B 4.3 23:36:22 17° SW 23:38:30 23° W 23:42:06 10° NW
CZ-4C R/B 2.9 23:31:39 10° NW 23:38:36 87° SW 23:45:35 17° SE
COSMOS 2455 4.0 23:33:42 10° NNW 23:39:26 42° NE 23:45:08 10° ESE
Meteor 2-2 Rocket 4.3 23:34:28 10° N 23:40:14 80° ENE 23:43:24 28° SSE
COSMOS 2406 3.7 23:34:48 10° NW 23:40:15 48° WSW 23:42:50 28° SSW
Cosmos 1934 Rocket 4.0 23:39:12 25° SSW 23:43:05 78° W 23:49:20 10° N
Cosmos 2221 4.0 23:40:48 10° N 23:44:32 29° ENE 23:46:52 18° ESE
Cosmos 2285 Rocket 4.1 23:44:48 10° NNW 23:51:17 75° ENE 23:55:34 22° SSE
USA 81 4.0 23:49:14 10° N 23:54:32 82° W 23:57:04 32° S
